Port Angeles, WA

10:18 PM PST on February 18, 2018 (GMT -0800)
Fairchild International

Weather History for KCLM - March, 2014

Change the Weather History Date:

Friday, March 28, 2014

  Actual Average Record
Temperature  
Mean Temperature 46 °F -  
Max Temperature 57 °F 52 °F 59 °F (1990)
Min Temperature 37 °F 37 °F 27 °F (1987)
Degree Days  
Heating Degree Days 19    
Moisture  
Dew Point 41 °F    
Average Humidity 88    
Maximum Humidity 100    
Minimum Humidity 64    
Precipitation  
Precipitation 0.06 in - - ()
Sea Level Pressure  
Sea Level Pressure 29.69 in    
Wind  
Wind Speed 3 mph (SW)    
Max Wind Speed 10 mph    
Max Gust Speed -    
Visibility 9 miles    
Events Rain    
Averages and records for this station are not official NWS values.
T = Trace of Precipitation, MM = Missing Value Source: NWS Daily Summary

Daily Weather History Graph

Daily Weather History Graph

Search for Another Location

Airport or City:

Trip Planner

Search our weather history database for the weather conditions in past years. The results will help you decide how hot, cold, wet, or windy it might be!

Date:

Astronomy

Mar. 28, 2014 Rise Set
Actual Time 7:00 AM PDT 7:38 PM PDT
Civil Twilight 6:28 AM PDT 8:10 PM PDT
Nautical Twilight 5:51 AM PDT 8:47 PM PDT
Astronomical Twilight 5:12 AM PDT 9:26 PM PDT
Moon 5:44 AM PDT (3/28) 5:34 PM PDT (3/28)
Length of Visible Light 13h 41m
Length of Day
12h 38m
Waning Crescent, 5% of the Moon is Illuminated
Mar 28
Waning Crescent
Mar 30
New
Apr 7
First Quarter
Apr 15
Full
Apr 22
Last Quarter

Hourly Weather History & Observations

Time (PDT) Temp. Windchill Dew Point Humidity Pressure Visibility Wind Dir Wind Speed Gust Speed Precip Events Conditions
12:32 AM 39.9 °F 37.8 °F 39.0 °F 97% 29.84 in 10.0 mi SSW 3.5 mph - N/A   Mostly Cloudy
12:53 AM 37.9 °F 33.5 °F 37.0 °F 97% 29.84 in 10.0 mi SW 5.8 mph - N/A   Scattered Clouds
1:29 AM 37.9 °F - 36.0 °F 93% 29.83 in 2.0 mi Calm Calm - N/A   Mostly Cloudy
1:38 AM 37.9 °F 35.5 °F 37.0 °F 97% 29.82 in 6.0 mi South 3.5 mph - N/A   Mostly Cloudy
1:53 AM 37.9 °F 35.5 °F 37.0 °F 97% 29.82 in 9.0 mi South 3.5 mph - N/A   Overcast
2:51 AM 39.2 °F 37.0 °F 39.2 °F 100% 29.79 in 10.0 mi SW 3.5 mph - N/A   Mostly Cloudy
2:53 AM 39.9 °F - 39.0 °F 97% 29.80 in 10.0 mi Calm Calm - N/A   Mostly Cloudy
3:26 AM 39.9 °F - 39.0 °F 97% 29.78 in 10.0 mi Calm Calm - N/A   Scattered Clouds
3:53 AM 39.9 °F 37.8 °F 39.0 °F 97% 29.76 in 6.0 mi WSW 3.5 mph - N/A   Scattered Clouds
4:53 AM 41.0 °F - 39.0 °F 93% 29.72 in 10.0 mi Calm Calm - N/A   Clear
5:53 AM 41.0 °F - 39.9 °F 96% 29.69 in 10.0 mi Calm Calm - 0.00 in Rain Light Rain
6:53 AM 41.0 °F - 39.0 °F 93% 29.66 in 7.0 mi Calm Calm - 0.00 in   Mostly Cloudy
7:53 AM 43.0 °F 41.3 °F 41.0 °F 93% 29.65 in 10.0 mi SW 3.5 mph - 0.01 in Rain Light Rain
8:12 AM 43.0 °F 41.3 °F 41.0 °F 93% 29.64 in 10.0 mi South 3.5 mph - 0.00 in   Overcast
8:53 AM 45.0 °F 42.6 °F 43.0 °F 93% 29.63 in 10.0 mi SSE 4.6 mph - 0.00 in   Partly Cloudy
9:53 AM 48.9 °F - 43.0 °F 80% 29.62 in 10.0 mi SSW 4.6 mph - N/A   Overcast
10:53 AM 46.9 °F - 44.1 °F 90% 29.63 in 10.0 mi North 3.5 mph - N/A   Overcast
11:20 AM 46.9 °F - 43.0 °F 86% 29.64 in 10.0 mi NNW 6.9 mph - N/A   Mostly Cloudy
11:53 AM 48.9 °F - 43.0 °F 80% 29.64 in 10.0 mi NW 10.4 mph - N/A   Mostly Cloudy
12:53 PM 48.9 °F - 44.1 °F 83% 29.65 in 10.0 mi West 8.1 mph - N/A   Overcast
1:53 PM 52.0 °F - 44.1 °F 74% 29.64 in 10.0 mi Calm Calm - N/A   Overcast
2:53 PM 55.9 °F - 44.1 °F 64% 29.62 in 10.0 mi NNW 3.5 mph - N/A   Overcast
3:53 PM 53.1 °F - 43.0 °F 69% 29.61 in 10.0 mi North 5.8 mph - N/A   Overcast
4:53 PM 51.1 °F - 42.1 °F 71% 29.62 in 10.0 mi Calm Calm - N/A   Mostly Cloudy
5:53 PM 48.9 °F - 45.0 °F 86% 29.64 in 4.0 mi Calm Calm - 0.04 in Rain Light Rain
6:53 PM 48.0 °F - 45.0 °F 89% 29.64 in 10.0 mi NW 4.6 mph - 0.00 in   Scattered Clouds
7:53 PM 48.0 °F - 43.0 °F 83% 29.64 in 10.0 mi SSW 4.6 mph - 0.00 in   Scattered Clouds
8:53 PM 48.0 °F - 42.1 °F 80% 29.65 in 10.0 mi SW 6.9 mph - 0.01 in Rain Light Rain
9:53 PM 43.0 °F 41.3 °F 41.0 °F 93% 29.67 in 10.0 mi SSE 3.5 mph - 0.00 in   Mostly Cloudy
10:53 PM 44.1 °F 41.5 °F 41.0 °F 89% 29.68 in 10.0 mi SSE 4.6 mph - 0.00 in   Mostly Cloudy
11:53 PM 46.0 °F 43.1 °F 42.1 °F 86% 29.67 in 10.0 mi WSW 5.8 mph - 0.00 in   Overcast